カタログに戻る

STARLINK-38043

運用中通信SSO
NORAD 69712·PAYLOAD·🇺🇸 United States

打ち上げ Jun 28, 2026 から Vandenberg Space Force Base

Loading…

次のパス (今後24時間)

TLE

最新Source: CelesTrak SupGP

元期: Sep 14, 2026, 23:38 UTC

1 69712C 26147J   26257.98520833  .00046364  00000+0  14394-2 0  2577
2 69712  97.2830 294.4025 0000974  92.9863  32.2577 15.33411756    12

AllMySatでSTARLINK-38043をリアルタイム追跡

Download on the App Store